This is the latest recevied weather packets stored in our database for station/object DH0DM-13. If no packets are shown the sender has not sent any weather packets the latest 10 day(s).
| Time | Temp. | Humidity | Pressure | Rain* | Wind** | Luminosity | Snow |
|---|---|---|---|---|---|---|---|
| 1787758220 | 17.78° C | 80% | 993.4 hPa | 4.06 mm | 3.13 m/s, 66° | - | - |
| 1787757619 | 17.78° C | 80% | 993.6 hPa | 4.06 mm | 1.34 m/s, 316° | - | - |
| 1787757018 | 17.78° C | 81% | 993.7 hPa | 4.06 mm | 2.24 m/s, 50° | - | - |
| 1787756417 | 17.78° C | 81% | 993.8 hPa | 4.06 mm | 6.26 m/s, 72° | - | - |
| 1787755817 | 17.22° C | 82% | 993.7 hPa | 4.06 mm | 2.68 m/s, 146° | - | - |
| 1787755216 | 17.22° C | 82% | 993.8 hPa | 4.06 mm | 1.34 m/s, 86° | - | - |
| 1787754615 | 17.22° C | 83% | 993.9 hPa | 4.06 mm | 1.79 m/s, 69° | - | - |
| 1787754014 | 17.22° C | 84% | 993.7 hPa | 4.06 mm | 6.26 m/s, 85° | - | - |
| 1787753413 | 17.22° C | 85% | 994.1 hPa | 4.06 mm | 3.58 m/s, 72° | - | - |
| 1787752812 | 16.67° C | 86% | 994 hPa | 4.06 mm | 0 m/s | - | - |
| 1787752211 | 16.67° C | 87% | 993.8 hPa | 4.06 mm | 1.34 m/s, 101° | - | - |
| 1787751610 | 16.67° C | 88% | 994 hPa | 4.06 mm | 4.47 m/s, 100° | - | - |
| 1787751009 | 16.11° C | 89% | 994.1 hPa | 4.06 mm | 4.47 m/s, 85° | - | - |
| 1787750408 | 16.11° C | 89% | 993.9 hPa | 4.06 mm | 0.45 m/s, 151° | - | - |
| 1787749807 | 16.11° C | 88% | 994.1 hPa | 4.06 mm | 1.34 m/s, 47° | - | - |
| 1787749206 | 16.11° C | 88% | 994 hPa | 4.06 mm | 0.89 m/s, 35° | - | - |
| 1787748605 | 16.11° C | 88% | 994 hPa | 4.06 mm | 0.89 m/s, 290° | - | - |
| 1787748004 | 16.11° C | 89% | 994.1 hPa | 4.06 mm | 4.02 m/s, 70° | - | - |
| 1787747403 | 16.11° C | 88% | 994.1 hPa | 4.06 mm | 0.45 m/s, 352° | - | - |
| 1787746802 | 16.11° C | 89% | 994 hPa | 4.06 mm | 0.45 m/s, 144° | - | - |
| 1787746200 | 15.56° C | 90% | 993.7 hPa | 4.06 mm | 0 m/s | - | - |
| 1787745600 | 15.56° C | 90% | 994 hPa | 4.06 mm | 1.34 m/s, 66° | - | - |
| 1787744999 | 15.56° C | 90% | 994 hPa | 4.06 mm | 0.89 m/s, 14° | - | - |
| 1787744398 | 15.56° C | 89% | 994 hPa | 4.06 mm | 0 m/s | - | - |
| 1787743797 | 15.56° C | 89% | 993.9 hPa | 4.06 mm | 0.89 m/s, 57° | - | - |
* Rain since midnight (hover to see other rain measurements)
** Current wind speed in m/s (hover to see current wind gust speed)